VIR655 MBPV-MKJS

Flight info

Callsign VIR655
Flight time N/A
Altitude 40000
Route OVALU UG629 IMADI LENAR7
Aircraft A339/H-SADE1E2E3GHIJ3J5M1P2RWXY/LB2D1

Departure

Time 2026-04-26 02:17
Airport Providenciales International Airport (MBPV)

Arrival

Time N/A
Airport Sangster International Airport (MKJS)
Time Latitude Longitude Altitude Speed Heading
2026-04-26 01:54 21.77649 -72.27419 51 ft 0 kts 33°
2026-04-26 02:08 21.77645 -72.27421 51 ft 3 kts 34°
2026-04-26 02:08 21.77624 -72.27438 41 ft 4 kts 37°
2026-04-26 02:08 21.77604 -72.27454 41 ft 4 kts 11°
2026-04-26 02:09 21.77583 -72.27456 41 ft 4 kts 346°
2026-04-26 02:09 21.77558 -72.27449 41 ft 4 kts 322°
2026-04-26 02:09 21.77539 -72.27431 42 ft 4 kts 299°
2026-04-26 02:09 21.77528 -72.27406 43 ft 4 kts 282°
2026-04-26 02:10 21.77523 -72.27378 42 ft 3 kts 274°
2026-04-26 02:10 21.77523 -72.27375 43 ft 0 kts 273°
2026-04-26 02:12 21.77524 -72.27390 42 ft 5 kts 274°
2026-04-26 02:13 21.77518 -72.27437 42 ft 7 kts 247°
2026-04-26 02:13 21.77465 -72.27463 45 ft 11 kts 197°
2026-04-26 02:13 21.77409 -72.27516 42 ft 11 kts 252°
2026-04-26 02:13 21.77410 -72.27637 43 ft 21 kts 274°
2026-04-26 02:14 21.77420 -72.27805 43 ft 23 kts 272°
2026-04-26 02:14 21.77425 -72.27980 43 ft 19 kts 272°
2026-04-26 02:14 21.77437 -72.28120 43 ft 12 kts 284°
2026-04-26 02:14 21.77472 -72.28189 43 ft 9 kts 272°
2026-04-26 02:15 21.77443 -72.28212 43 ft 3 kts 171°
2026-04-26 02:15 21.77435 -72.28178 43 ft 6 kts 94°
2026-04-26 02:15 21.77435 -72.28169 43 ft 0 kts 91°
2026-04-26 02:16 21.77434 -72.28150 43 ft 15 kts 91°
2026-04-26 02:16 21.77416 -72.27663 44 ft 114 kts 92°
2026-04-26 02:17 21.77354 -72.26527 143 ft 178 kts 92°
2026-04-26 02:17 21.77283 -72.25153 812 ft 193 kts 92°
2026-04-26 02:17 21.77212 -72.23739 1927 ft 186 kts 93°
2026-04-26 02:17 21.76974 -72.22325 2653 ft 204 kts 113°
2026-04-26 02:18 21.76051 -72.21082 3207 ft 225 kts 139°
2026-04-26 02:18 21.74806 -72.19937 3686 ft 246 kts 139°
2026-04-26 02:18 21.73419 -72.18728 4020 ft 268 kts 148°
2026-04-26 02:18 21.71641 -72.18094 4761 ft 271 kts 172°
2026-04-26 02:19 21.69756 -72.17775 5533 ft 276 kts 172°
2026-04-26 02:19 21.67850 -72.17710 6317 ft 276 kts 192°
2026-04-26 02:19 21.66093 -72.18490 7087 ft 275 kts 214°
2026-04-26 02:19 21.64470 -72.19599 7829 ft 277 kts 216°
2026-04-26 02:20 21.63078 -72.21024 8573 ft 278 kts 231°
2026-04-26 02:20 21.62056 -72.22747 9320 ft 278 kts 248°
2026-04-26 02:20 21.61298 -72.24665 10062 ft 281 kts 248°
2026-04-26 02:20 21.60514 -72.26641 10479 ft 297 kts 248°
2026-04-26 02:21 21.59673 -72.28761 10677 ft 319 kts 248°
2026-04-26 02:21 21.58787 -72.31006 11070 ft 331 kts 248°
2026-04-26 02:21 21.57885 -72.33287 11767 ft 332 kts 248°
2026-04-26 02:21 21.56981 -72.35576 12449 ft 335 kts 248°
2026-04-26 02:22 21.56070 -72.37886 13116 ft 337 kts 248°
2026-04-26 02:22 21.55151 -72.40216 13789 ft 340 kts 248°
2026-04-26 02:22 21.54227 -72.42564 14381 ft 343 kts 248°
2026-04-26 02:22 21.53298 -72.44930 14977 ft 345 kts 248°
2026-04-26 02:23 21.52366 -72.47312 15570 ft 348 kts 248°
2026-04-26 02:23 21.51428 -72.49716 16151 ft 350 kts 248°
2026-04-26 02:23 21.50487 -72.52139 16724 ft 353 kts 248°
2026-04-26 02:23 21.49568 -72.54590 17276 ft 355 kts 250°
2026-04-26 02:24 21.48703 -72.57088 17843 ft 358 kts 250°
2026-04-26 02:24 21.47837 -72.59603 18378 ft 361 kts 250°
2026-04-26 02:24 21.46875 -72.62101 18899 ft 362 kts 246°
2026-04-26 02:24 21.45760 -72.64531 19444 ft 363 kts 244°
2026-04-26 02:25 21.44615 -72.66955 19993 ft 365 kts 244°
2026-04-26 02:25 21.43506 -72.69411 20518 ft 366 kts 246°
2026-04-26 02:25 21.42475 -72.71920 21072 ft 368 kts 247°
2026-04-26 02:25 21.41442 -72.74438 21628 ft 370 kts 247°
2026-04-26 02:26 21.40398 -72.76967 22178 ft 371 kts 247°
2026-04-26 02:26 21.39368 -72.79478 22724 ft 373 kts 248°
2026-04-26 02:26 21.38381 -72.82100 23283 ft 375 kts 249°
2026-04-26 02:26 21.37410 -72.84706 23800 ft 377 kts 249°
2026-04-26 02:27 21.36445 -72.87287 24292 ft 378 kts 249°
2026-04-26 02:27 21.35466 -72.89904 24818 ft 379 kts 249°
2026-04-26 02:27 21.34480 -72.92530 25295 ft 380 kts 249°
2026-04-26 02:27 21.33490 -72.95165 25782 ft 381 kts 249°
2026-04-26 02:28 21.32495 -72.97806 26262 ft 383 kts 249°
2026-04-26 02:28 21.31494 -73.00459 26728 ft 385 kts 249°
2026-04-26 02:28 21.30487 -73.03121 27197 ft 386 kts 249°
2026-04-26 02:28 21.29475 -73.05794 27654 ft 388 kts 249°
2026-04-26 02:29 21.28459 -73.08475 28119 ft 389 kts 249°
2026-04-26 02:29 21.27436 -73.11169 28567 ft 391 kts 249°
2026-04-26 02:29 21.26406 -73.13870 29005 ft 393 kts 249°
2026-04-26 02:29 21.25369 -73.16586 29453 ft 394 kts 249°
2026-04-26 02:30 21.24324 -73.19311 29911 ft 396 kts 249°
2026-04-26 02:30 21.23272 -73.22050 30314 ft 398 kts 249°
2026-04-26 02:30 21.22219 -73.24796 30737 ft 399 kts 249°
2026-04-26 02:30 21.21164 -73.27552 31152 ft 400 kts 249°
2026-04-26 02:31 21.20107 -73.30317 31561 ft 402 kts 249°
2026-04-26 02:31 21.19050 -73.33092 31952 ft 403 kts 249°
2026-04-26 02:31 21.17988 -73.35884 32332 ft 405 kts 249°
2026-04-26 02:31 21.16927 -73.38682 32676 ft 406 kts 249°
2026-04-26 02:32 21.15861 -73.41498 32966 ft 408 kts 249°
2026-04-26 02:32 21.14798 -73.44317 33221 ft 409 kts 249°
2026-04-26 02:32 21.13732 -73.47147 33431 ft 410 kts 249°
2026-04-26 02:32 21.12681 -73.49941 33677 ft 410 kts 249°
2026-04-26 02:33 21.11621 -73.52770 33953 ft 408 kts 249°
2026-04-26 02:33 21.10552 -73.55624 34199 ft 407 kts 249°
2026-04-26 02:33 21.09499 -73.58436 34443 ft 406 kts 249°
2026-04-26 02:33 21.08451 -73.61236 34686 ft 405 kts 249°
2026-04-26 02:34 21.07403 -73.64030 34929 ft 404 kts 250°
2026-04-26 02:34 21.06358 -73.66817 35159 ft 403 kts 250°
2026-04-26 02:34 21.05316 -73.69591 35408 ft 402 kts 250°
2026-04-26 02:34 21.04275 -73.72364 35660 ft 401 kts 250°
2026-04-26 02:35 21.03250 -73.75091 35903 ft 399 kts 250°
2026-04-26 02:35 21.02215 -73.77846 36143 ft 398 kts 250°
2026-04-26 02:35 21.01180 -73.80598 36393 ft 397 kts 250°
2026-04-26 02:35 21.00151 -73.83338 36627 ft 396 kts 250°
2026-04-26 02:36 20.99124 -73.86069 36865 ft 395 kts 250°
2026-04-26 02:36 20.98099 -73.88797 37102 ft 394 kts 250°
2026-04-26 02:36 20.97076 -73.91517 37339 ft 393 kts 250°
2026-04-26 02:36 20.96091 -73.94241 37555 ft 393 kts 251°
2026-04-26 02:37 20.95438 -73.96085 37707 ft 392 kts 251°
2026-04-26 02:37 20.94489 -73.98776 37930 ft 391 kts 251°
2026-04-26 02:37 20.93530 -74.01494 38173 ft 390 kts 251°
2026-04-26 02:37 20.92572 -74.04208 38382 ft 390 kts 251°
2026-04-26 02:38 20.91617 -74.06917 38601 ft 389 kts 251°
2026-04-26 02:38 20.90664 -74.09619 38776 ft 388 kts 251°
2026-04-26 02:38 20.89712 -74.12324 38920 ft 389 kts 251°
2026-04-26 02:38 20.88799 -74.15048 39068 ft 389 kts 252°
2026-04-26 02:39 20.87953 -74.17794 39214 ft 389 kts 253°
2026-04-26 02:39 20.87113 -74.20539 39351 ft 389 kts 253°
2026-04-26 02:39 20.86270 -74.23296 39496 ft 389 kts 253°
2026-04-26 02:39 20.85492 -74.26064 39635 ft 389 kts 255°
2026-04-26 02:40 20.84760 -74.28848 39787 ft 389 kts 255°
2026-04-26 02:40 20.83980 -74.31622 39911 ft 390 kts 252°
2026-04-26 02:40 20.83132 -74.34370 39963 ft 390 kts 253°
2026-04-26 02:41 20.81454 -74.39867 39964 ft 389 kts 254°
2026-04-26 02:41 20.79904 -74.45400 39966 ft 389 kts 253°
2026-04-26 02:42 20.78224 -74.50941 39966 ft 395 kts 252°
2026-04-26 02:42 20.76468 -74.56518 39965 ft 395 kts 252°
2026-04-26 02:43 20.73829 -74.64851 39965 ft 395 kts 252°
2026-04-26 02:43 20.72071 -74.70403 39968 ft 395 kts 252°
2026-04-26 02:44 20.70319 -74.75929 39973 ft 395 kts 252°
2026-04-26 02:44 20.68556 -74.81485 39973 ft 395 kts 252°
2026-04-26 02:45 20.66772 -74.87040 39973 ft 395 kts 251°
2026-04-26 02:45 20.64496 -74.92398 39972 ft 398 kts 244°
2026-04-26 02:46 20.61559 -74.97425 39973 ft 401 kts 238°
2026-04-26 02:46 20.58095 -75.02118 39973 ft 403 kts 236°
2026-04-26 02:47 20.54594 -75.06797 39977 ft 403 kts 236°
2026-04-26 02:47 20.51120 -75.11443 39978 ft 403 kts 236°
2026-04-26 02:48 20.47620 -75.16117 39974 ft 404 kts 236°
2026-04-26 02:48 20.44113 -75.20796 39969 ft 404 kts 236°
2026-04-26 02:49 20.40605 -75.25473 39981 ft 404 kts 236°
2026-04-26 02:49 20.37091 -75.30154 39983 ft 404 kts 236°
2026-04-26 02:50 20.33574 -75.34832 39982 ft 404 kts 236°
2026-04-26 02:50 20.30058 -75.39509 39973 ft 405 kts 235°
2026-04-26 02:51 20.26535 -75.44189 39976 ft 405 kts 235°
2026-04-26 02:51 20.23011 -75.48867 39962 ft 405 kts 235°
2026-04-26 02:52 20.19483 -75.53546 39979 ft 405 kts 235°
2026-04-26 02:52 20.15954 -75.58225 39976 ft 405 kts 235°
2026-04-26 02:53 20.12419 -75.62905 39953 ft 406 kts 235°
2026-04-26 02:53 20.08901 -75.67562 39964 ft 407 kts 235°
2026-04-26 02:54 20.05350 -75.72258 39967 ft 407 kts 235°
2026-04-26 02:54 20.01796 -75.76954 39968 ft 408 kts 235°
2026-04-26 02:55 19.98238 -75.81652 39964 ft 408 kts 235°
2026-04-26 02:55 19.94795 -75.86441 39963 ft 407 kts 237°
2026-04-26 02:56 19.91479 -75.91333 39960 ft 408 kts 237°
2026-04-26 02:56 19.88133 -75.96208 39962 ft 408 kts 237°
2026-04-26 02:57 19.84764 -76.01076 39959 ft 409 kts 237°
2026-04-26 02:57 19.81412 -76.05909 39956 ft 410 kts 237°
2026-04-26 02:58 19.78030 -76.10784 39957 ft 410 kts 237°
2026-04-26 02:58 19.74642 -76.15663 39955 ft 411 kts 237°
2026-04-26 02:59 19.71249 -76.20546 39953 ft 411 kts 237°
2026-04-26 02:59 19.67853 -76.25430 39957 ft 411 kts 237°
2026-04-26 03:00 19.64453 -76.30315 39955 ft 412 kts 237°
2026-04-26 03:00 19.61040 -76.35215 39954 ft 415 kts 237°
2026-04-26 03:01 19.57599 -76.40152 39949 ft 417 kts 236°
2026-04-26 03:01 19.54141 -76.45108 39957 ft 418 kts 236°
2026-04-26 03:02 19.50677 -76.50069 39959 ft 419 kts 236°
2026-04-26 03:02 19.47229 -76.55004 39955 ft 420 kts 236°
2026-04-26 03:03 19.43752 -76.59976 39962 ft 420 kts 236°
2026-04-26 03:03 19.40266 -76.64958 39959 ft 421 kts 236°
2026-04-26 03:04 19.36776 -76.69941 39959 ft 421 kts 236°
2026-04-26 03:04 19.33283 -76.74924 39961 ft 422 kts 236°
2026-04-26 03:05 19.29759 -76.79946 39961 ft 422 kts 236°
2026-04-26 03:05 19.26283 -76.84899 39960 ft 422 kts 236°
2026-04-26 03:06 19.22776 -76.89889 39959 ft 422 kts 236°
2026-04-26 03:06 19.19270 -76.94875 39963 ft 423 kts 236°
2026-04-26 03:07 19.15811 -76.99786 39924 ft 408 kts 236°
2026-04-26 03:07 19.12419 -77.04604 39769 ft 409 kts 236°
2026-04-26 03:08 19.10717 -77.07022 39399 ft 411 kts 236°
2026-04-26 03:08 19.09006 -77.09451 38886 ft 412 kts 236°
2026-04-26 03:08 19.07293 -77.11880 38206 ft 412 kts 236°
2026-04-26 03:08 19.05577 -77.14311 37468 ft 412 kts 236°
2026-04-26 03:09 19.03861 -77.16741 36754 ft 413 kts 236°
2026-04-26 03:09 19.02136 -77.19183 36062 ft 416 kts 236°
2026-04-26 03:09 19.00404 -77.21636 35390 ft 418 kts 236°
2026-04-26 03:09 18.98660 -77.24104 34737 ft 420 kts 236°
2026-04-26 03:10 18.96902 -77.26590 34093 ft 422 kts 236°
2026-04-26 03:10 18.95141 -77.29081 33393 ft 425 kts 236°
2026-04-26 03:10 18.93365 -77.31592 32686 ft 430 kts 236°
2026-04-26 03:10 18.91588 -77.34102 31914 ft 435 kts 236°
2026-04-26 03:11 18.89768 -77.36673 31107 ft 438 kts 236°
2026-04-26 03:11 18.87944 -77.39246 30321 ft 437 kts 236°
2026-04-26 03:11 18.86709 -77.40985 29762 ft 437 kts 236°
2026-04-26 03:11 18.86443 -77.41361 29625 ft 437 kts 236°